Home   Weather   Moss   Past weeks

Flag for Norway Past Weather in Moss, Norway — Yesterday and Last 2 Weeks

Now
61 °F

Sunny.


Feels Like: 61 °F
Forecast: 50 / 66 °F
Wind: 13 mph from Southwest

Location: Rygge

Current Time: May 25, 2017 at 2:43:57 pm

Latest Report: May 25, 2017 at 1:50 pm


Visibility: 10 mi

Pressure: 30.01 "Hg

Humidity: 52%

Dew Point: 43 °F

Location of MossLocation

Past Weather in Moss — Graph

°F

Moss Temperature Yesterday

Maximum temperature yesterday: 63 °F (at 10:50 am)
Minimum temperature yesterday: 43 °F (at 3:50 am)
Average temperature yesterday: 56 °F

High & Low Weather Summary for the Past Weeks

 TemperatureHumidityPressure
High70 °F (May 20, 2:50 pm)100% (May 11, 3:50 am)30.36 "Hg (May 11, 3:50 am)
Low36 °F (May 11, 7:50 am)42% (May 22, 1:50 pm)29.65 "Hg (May 11, 4:50 am)
Average51 °F81%30.00 "Hg
* Reported May 10 1:20 pm — May 25 1:20 pm, Moss. Weather by CustomWeather, © 2017

Note: Actual official high and low records may vary slightly from our data, if they occured in-between our weather recording intervals... More about our weather records

Advertising

Moss Weather History for the Previous 24 Hours

Scroll right to see more
 ConditionsComfort  
Time TempWeatherWind HumidityBarometerVisibility
1:20 pm
Thu, May 25
63 °FPassing clouds.12 mph49%30.01 "HgN/A
12:50 pm64 °FPassing clouds.5 mph43%30.04 "HgN/A
12:20 pm64 °FPassing clouds.3 mph43%30.04 "HgN/A
11:50 am64 °FPassing clouds.6 mph43%30.04 "HgN/A
11:20 am63 °FPassing clouds.7 mph45%30.04 "HgN/A
10:50 am63 °FPassing clouds.6 mph49%30.04 "HgN/A
10:20 am63 °FPassing clouds.5 mph42%30.04 "HgN/A
9:50 am61 °FPassing clouds.6 mph45%30.04 "HgN/A
9:20 am61 °FPassing clouds.6 mph45%30.04 "HgN/A
8:50 am59 °FPassing clouds.7 mph51%30.04 "HgN/A
8:20 am59 °FSunny.8 mph55%30.04 "Hg10 mi
7:50 am57 °FRefreshingly cool.8 mph51%30.04 "HgN/A
7:20 am57 °FRefreshingly cool.9 mph55%30.04 "HgN/A
6:50 am55 °FRefreshingly cool.9 mph55%30.04 "HgN/A
6:20 am55 °FRefreshingly cool.8 mph59%30.04 "HgN/A
5:50 am54 °FPassing clouds.6 mph63%30.01 "HgN/A
5:20 am52 °FCool.6 mph62%30.01 "HgN/A
4:50 am52 °FPassing clouds.6 mph62%30.01 "HgN/A
4:20 am54 °FPassing clouds.7 mph58%30.01 "HgN/A
3:50 am54 °FPassing clouds.9 mph58%30.01 "HgN/A
3:20 am54 °FCool.9 mph58%29.98 "HgN/A
2:50 am54 °FCool.9 mph58%29.98 "HgN/A
2:20 am54 °FCool.9 mph58%29.98 "HgN/A
1:50 am54 °FCool.7 mph58%29.98 "HgN/A
1:20 am55 °FRefreshingly cool.7 mph55%29.95 "HgN/A
12:50 am55 °FRefreshingly cool.8 mph55%29.95 "HgN/A
12:20 am55 °FRefreshingly cool.6 mph55%29.95 "HgN/A
11:50 pm
Wed, May 24
55 °FRefreshingly cool.6 mph55%29.95 "HgN/A
11:20 pm55 °FCool.8 mph63%29.95 "HgN/A
10:50 pm55 °FCool.6 mph77%29.95 "HgN/A
10:20 pm55 °FCool.8 mph82%29.95 "HgN/A
9:50 pm57 °FPassing clouds.9 mph77%29.95 "HgN/A
8:50 pm59 °FPassing clouds.9 mph68%29.92 "HgN/A
8:20 pm59 °FScattered clouds.12 mph68%29.92 "HgN/A
7:50 pm59 °FSunny.10 mph72%29.92 "Hg10 mi
7:20 pm61 °FSunny.13 mph63%29.92 "Hg10 mi
6:50 pm61 °FSunny.12 mph63%29.92 "Hg10 mi
6:20 pm61 °FSunny.15 mph63%29.92 "Hg10 mi
5:50 pm61 °FSunny.13 mph63%29.95 "Hg10 mi
5:20 pm61 °FSunny.16 mph68%29.95 "Hg10 mi
4:50 pm61 °FSunny.15 mph68%29.95 "Hg10 mi
4:20 pm63 °FSunny.14 mph64%29.95 "Hg10 mi
3:50 pm63 °FSunny.14 mph64%29.95 "Hg10 mi
3:20 pm63 °FSunny.15 mph59%29.95 "Hg10 mi
2:50 pm61 °FSunny.14 mph63%29.95 "Hg10 mi
2:20 pm63 °FSunny.13 mph64%29.95 "Hg10 mi
Weather by CustomWeather, © 2017

See weather overviewHow to use our weather pages